Погода в Грабцеве

Россия / Калужская область     54°33′59″N   36°22′15″E
В апреле 2022 года жителям России запретили посещать сайт meteo.paraplan.net по решению Генеральной прокуратуры. Аудитория сайта уменьшилась в 10 раз. Владельцы сайта не видят смысла в поддержке погодного сервера в таких условиях. Сайт будет закрыт в октябре.
темп.,
°C
ветер,
м/с
пор.,
м/с
влажн.,
%
обл.,
%
осадки,
мм/ч
давл.,
гПа
погр.,
м
4 октября, вт
вт400:00+9ююв81784100 0.6 10001418
03:00+9ююв91681100 0.8 10011303
06:00+10ююв91779100 0.0 10011467
09:00+7ююз61191100 1.9 10041139
12:00+7ю61285100 1.6 10061199
15:00+9ю61076100 2.1 10071307
18:00+7ю4891100 0.8 10081070
21:00+6ю5991100 1.3 1009954
5 октября, ср
ср500:00+6ю5892100 0.6 10091092
03:00+6ююз4794100 1.2 10101056
06:00+6юз3794100 1.9 10101030
09:00+6з4790100 2.5 1012793
12:00+6зсз578596 0.2 1014812
15:00+6з4786100 0.4 1016898
18:00+6з4988100 0.3 1017695
21:00+6з3893100 0.6 1018416
6 октября, чт
чт600:00+7зюз389473 0.0 1018399
03:00+6зюз3795100 0.2 1019277
06:00+7ююз2498100 0.4 1018144
09:00+8зюз2698100 0.6 1019280
12:00+10зюз3591100 0.0 1019506
15:00+10юз3793100 0.1 1019358
18:00+9юз389611 0.0 1018262
21:00+9юз412964 0.0 1018344
7 октября, пт
пт700:00+9зюз4129473 0.0 1017337
03:00+9з41396100 0.0 1018385
06:00+12зсз6108282 0.0 1019755
09:00+10зсз5108993 0.0 1021640
12:00+10зсз5982100 0.0 1023941
15:00+10з51077100 0.0 10241142
18:00+11зсз51075100 0.0 1024631
21:00+7зюз310930 0.0 1025223
8 октября, сб
сб800:00+6з26940 0.0 1026108
03:00+6зюз23940 0.0 102651
06:00+5юз23946 0.0 102656
09:00+8юз37875 0.0 1026233
12:00+13юз47715 0.0 1024709
15:00+14юз466410 0.0 1022930
18:00+10ююз3684100 0.0 1022106
21:00+8ююз3119094 0.0 1021230